Alpena, MI

5:56 PM EST on January 22, 2018 (GMT -0500)
Alpena County Regional

Weather History for KAPN - November, 2014

Change the Weather History Date:

Thursday, November 20, 2014

  Actual Average Record
Temperature  
Mean Temperature 21 °F 34 °F  
Max Temperature 24 °F 41 °F 65 °F (1953)
Min Temperature 18 °F 27 °F 8 °F (1951)
Degree Days  
Heating Degree Days 44 31  
Month to date heating degree days 662 550  
Since 1 July heating degree days 1581 1494  
Moisture  
Dew Point 14 °F    
Average Humidity 70    
Maximum Humidity 84    
Minimum Humidity 55    
Precipitation  
Precipitation T in 0.07 in 1.50 in (1948)
Month to date precipitation 1.37 1.42  
Year to date precipitation 30.99 25.73  
Snow  
Snow T in 0.40 in 3.80 in (1981)
Month to date snowfall 2.1 3.9  
Since 1 July snowfall 2.1 4.3  
Snow Depth 2.00 in    
Sea Level Pressure  
Sea Level Pressure 29.70 in    
Wind  
Wind Speed 11 mph (WSW)    
Max Wind Speed 14 mph    
Max Gust Speed 31 mph    
Visibility 8 miles    
Events Snow    
T = Trace of Precipitation, MM = Missing Value Source: NWS Daily Summary

Daily Weather History Graph

Daily Weather History Graph

Search for Another Location

Airport or City:

Trip Planner

Search our weather history database for the weather conditions in past years. The results will help you decide how hot, cold, wet, or windy it might be!

Date:

Astronomy

Nov. 20, 2014 Rise Set
Actual Time 7:38 AM EST 5:00 PM EST
Civil Twilight 7:06 AM EST 5:32 PM EST
Nautical Twilight 6:30 AM EST 6:08 PM EST
Astronomical Twilight 5:55 AM EST 6:43 PM EST
Moon 5:27 AM EST (11/20) 4:08 PM EST (11/20)
Length of Visible Light 10h 26m
Length of Day
9h 21m
Waning Crescent, 4% of the Moon is Illuminated
Nov 20
Waning Crescent
Nov 22
New
Nov 29
First Quarter
Dec 6
Full
Dec 14
Last Quarter

Hourly Weather History & Observations

Time (EST) Temp. Windchill Dew Point Humidity Pressure Visibility Wind Dir Wind Speed Gust Speed Precip Events Conditions
12:06 AM 19.9 °F 8.6 °F 16.0 °F 85% 29.60 in 1.8 mi WSW 10.4 mph 18.4 mph 0.00 in Snow Light Snow
12:22 AM 19.9 °F 9.3 °F 17.1 °F 89% 29.60 in 3.0 mi SW 9.2 mph - 0.00 in Snow Light Snow
12:46 AM 19.9 °F 11.1 °F 17.1 °F 89% 29.60 in 8.0 mi WSW 6.9 mph - 0.00 in   Overcast
12:54 AM 19.9 °F 8.6 °F 17.1 °F 89% 29.64 in 10.0 mi WSW 10.4 mph - 0.00 in   Overcast
1:54 AM 21.0 °F 8.1 °F 16.0 °F 81% 29.64 in 10.0 mi WSW 13.8 mph 20.7 mph N/A   Scattered Clouds
2:14 AM 21.0 °F 9.9 °F 16.0 °F 81% 29.61 in 10.0 mi WSW 10.4 mph 21.9 mph N/A   Mostly Cloudy
2:54 AM 21.0 °F 9.3 °F 17.1 °F 85% 29.67 in 8.0 mi WSW 11.5 mph - 0.00 in Snow Light Snow
3:01 AM 21.0 °F 8.1 °F 17.1 °F 85% 29.63 in 9.0 mi WSW 13.8 mph 21.9 mph 0.00 in Snow Light Snow
3:08 AM 21.0 °F 9.3 °F 16.0 °F 81% 29.63 in 10.0 mi WSW 11.5 mph 21.9 mph 0.00 in   Mostly Cloudy
3:19 AM 21.0 °F 11.4 °F 16.0 °F 81% 29.64 in 10.0 mi WSW 8.1 mph 23.0 mph 0.00 in   Mostly Cloudy
3:45 AM 19.9 °F 11.1 °F 17.1 °F 89% 29.64 in 10.0 mi WSW 6.9 mph - 0.00 in   Overcast
3:54 AM 19.9 °F 11.1 °F 16.0 °F 85% 29.67 in 10.0 mi WSW 6.9 mph - 0.00 in   Mostly Cloudy
4:11 AM 19.9 °F 11.1 °F 15.1 °F 81% 29.64 in 10.0 mi WSW 6.9 mph - N/A   Scattered Clouds
4:54 AM 19.9 °F 8.6 °F 14.0 °F 78% 29.68 in 10.0 mi WSW 10.4 mph - N/A   Clear
5:54 AM 19.9 °F 7.3 °F 14.0 °F 78% 29.69 in 10.0 mi WSW 12.7 mph - N/A   Clear
6:54 AM 19.0 °F 6.8 °F 12.9 °F 77% 29.72 in 10.0 mi WSW 11.5 mph 17.3 mph N/A   Clear
7:54 AM 18.0 °F 9.8 °F 12.9 °F 81% 29.74 in 10.0 mi West 5.8 mph - N/A   Scattered Clouds
8:03 AM 18.0 °F 8.7 °F 12.9 °F 81% 29.70 in 10.0 mi WSW 6.9 mph - N/A   Mostly Cloudy
8:31 AM 19.0 °F 8.2 °F 12.0 °F 74% 29.71 in 9.0 mi West 9.2 mph - 0.00 in Snow Light Snow
8:54 AM 19.0 °F 6.8 °F 12.9 °F 77% 29.75 in 10.0 mi WSW 11.5 mph - 0.00 in   Mostly Cloudy
9:40 AM 19.9 °F 7.9 °F 12.9 °F 74% 29.73 in 5.0 mi WSW 11.5 mph 19.6 mph 0.00 in Snow Light Snow
9:50 AM 19.4 °F 7.2 °F 12.2 °F 74% 29.73 in 8.0 mi West 11.5 mph - 0.00 in Snow Light Snow
9:54 AM 19.0 °F 9.0 °F 12.9 °F 77% 29.77 in 8.0 mi WSW 8.1 mph - 0.00 in Snow Light Snow
10:49 AM 19.4 °F 7.2 °F 12.2 °F 74% 29.75 in 1.8 mi West 11.5 mph 20.7 mph 0.00 in Snow Light Snow
10:54 AM 19.0 °F 6.8 °F 12.9 °F 77% 29.79 in 1.2 mi West 11.5 mph 20.7 mph 0.00 in Snow Light Snow
11:01 AM 19.9 °F 8.6 °F 14.0 °F 78% 29.75 in 3.0 mi West 10.4 mph - 0.00 in Snow Light Snow
11:08 AM 21.0 °F 10.6 °F 12.9 °F 71% 29.75 in 9.0 mi West 9.2 mph 17.3 mph 0.00 in   Scattered Clouds
11:54 AM 23.0 °F 10.1 °F 10.9 °F 60% 29.78 in 10.0 mi WSW 15.0 mph 23.0 mph 0.00 in   Scattered Clouds
12:13 PM 21.9 °F 9.8 °F 12.9 °F 68% 29.75 in 1.8 mi WSW 12.7 mph 28.8 mph 0.00 in Snow Light Snow
12:21 PM 21.9 °F 8.2 °F 12.0 °F 66% 29.74 in 4.0 mi WSW 16.1 mph 26.5 mph 0.00 in Snow Light Snow
12:40 PM 23.0 °F 8.3 °F 12.0 °F 63% 29.74 in 10.0 mi West 19.6 mph 27.6 mph 0.00 in   Scattered Clouds
12:54 PM 24.1 °F 13.7 °F 10.0 °F 55% 29.78 in 10.0 mi West 10.4 mph 28.8 mph 0.00 in   Scattered Clouds
1:54 PM 21.9 °F 9.2 °F 10.9 °F 63% 29.81 in 10.0 mi West 13.8 mph 23.0 mph N/A   Scattered Clouds
2:54 PM 23.0 °F 12.4 °F 8.1 °F 53% 29.83 in 6.0 mi WNW 10.4 mph 21.9 mph 0.00 in Snow Light Snow